Date String (YYYY-MM-DD hh:mm:ss) UTC,Instrument flags,Ambient pressure (hPa),Sample flow (lpm),Bypass flow (lpm),Sample temperature (°C),Ambient temperature (°C),ASC tube jacket temperature (°C),LED temperature (°C),Box temperature (°C),Sample RH (%),Span deviation,Mass concentration (μg/m³),Mass concentration (μg/m³),Mass concentration (μg/m³)
DateTimeUTC,F1_M11,P_M11,Q1_M11,Q2_M11,T1_M11,T2_M11,T3_M11,T4_M11,T5_M11,U1_M11,ZSPAN_M11,X0_M11,X2_M11,X1_M11
2023-04-22 09:00:00,,0833.9,5.00,0.00,23.1,22.1,00.0,31.4,24.7,16.3,0000.0,0007.34,0004.41,0003.94
2023-04-22 09:01:00,,0833.9,5.00,0.00,23.0,21.9,00.0,31.4,24.6,16.3,0000.0,0007.27,0004.39,0003.94
2023-04-22 09:02:00,,0833.9,5.01,0.00,23.0,21.8,00.0,31.4,24.5,16.3,0000.0,0007.75,0004.40,0003.96
2023-04-22 09:03:00,,0833.8,5.01,0.00,23.0,21.7,00.0,31.4,24.5,16.3,0000.0,0007.75,0004.40,0003.97
2023-04-22 09:04:00,,0833.9,5.01,0.00,23.0,21.6,00.0,31.4,24.5,16.3,0000.0,0007.71,0004.39,0003.97
2023-04-22 09:05:00,,0833.9,5.00,0.00,23.0,21.5,00.0,31.4,24.4,16.3,0000.0,0007.78,0004.41,0003.98
2023-04-22 09:06:00,,0833.8,4.99,0.00,22.9,21.4,00.0,31.4,24.4,16.3,0000.0,0008.35,0004.46,0004.00
2023-04-22 09:07:00,,0833.9,4.99,0.00,22.9,21.4,00.0,31.4,24.4,16.3,0000.0,0008.58,0004.47,0003.99
2023-04-22 09:08:00,,0833.8,5.00,0.00,22.9,21.3,00.0,31.4,24.3,16.3,0000.0,0008.53,0004.48,0003.99
2023-04-22 09:09:00,,0833.9,4.99,0.00,22.9,21.2,00.0,31.4,24.3,16.3,0000.0,0009.03,0004.51,0003.99
2023-04-22 09:10:00,,0834.0,5.00,0.00,22.8,21.1,00.0,31.3,24.3,16.2,0000.0,0009.12,0004.50,0003.98
2023-04-22 09:11:00,,0833.9,5.01,0.00,22.8,21.0,00.0,31.3,24.2,16.2,0000.0,0009.12,0004.51,0003.98
2023-04-22 09:12:00,,0833.9,5.01,0.00,22.8,21.1,00.0,31.3,24.3,16.2,0000.0,0009.19,0004.53,0003.97
2023-04-22 09:13:00,,0834.0,5.01,0.00,22.9,21.9,00.0,31.2,24.7,16.1,0000.0,0008.82,0004.56,0003.97
2023-04-22 09:14:00,,0834.0,4.99,0.00,23.0,22.8,00.0,31.2,25.0,15.9,0000.0,0008.77,0004.56,0003.95
2023-04-22 09:15:00,,0834.0,4.99,0.00,23.1,23.1,00.0,31.3,25.0,15.8,0000.0,0008.83,0004.56,0003.93
2023-04-22 09:16:00,,0834.0,4.99,0.00,23.1,22.9,00.0,31.3,24.9,15.8,0000.0,0008.73,0004.53,0003.92
2023-04-22 09:17:00,,0834.0,5.00,0.00,23.1,22.6,00.0,31.4,24.8,15.8,0000.0,0008.43,0004.52,0003.91
2023-04-22 09:18:00,,0834.0,5.00,0.00,23.1,22.3,00.0,31.4,24.7,15.8,0000.0,0008.19,0004.56,0003.90
2023-04-22 09:19:00,,0834.0,5.00,0.00,23.0,22.1,00.0,31.4,24.6,15.7,0000.0,0008.25,0004.58,0003.89
2023-04-22 09:20:00,,0834.0,5.00,0.00,23.0,21.8,00.0,31.4,24.5,15.7,0000.0,0007.89,0004.56,0003.90
2023-04-22 09:21:00,,0834.1,4.99,0.00,23.0,21.7,00.0,31.4,24.5,15.7,0000.0,0007.61,0004.59,0003.90
2023-04-22 09:22:00,,0834.0,5.01,0.00,22.9,21.5,00.0,31.4,24.4,15.8,0000.0,0007.67,0004.60,0003.90
2023-04-22 09:23:00,,0834.1,5.00,0.00,22.9,21.4,00.0,31.4,24.4,15.8,0000.0,0007.59,0004.57,0003.90
2023-04-22 09:24:00,,0834.0,5.00,0.00,22.9,21.2,00.0,31.4,24.4,15.8,0000.0,0007.55,0004.55,0003.91
2023-04-22 09:25:00,,0834.0,4.99,0.00,22.8,21.1,00.0,31.3,24.3,15.8,0000.0,0007.52,0004.52,0003.90
2023-04-22 09:26:00,,0834.0,5.00,0.00,22.8,21.1,00.0,31.3,24.3,15.8,0000.0,0007.50,0004.50,0003.88
2023-04-22 09:27:00,,0834.0,5.00,0.00,22.8,21.1,00.0,31.3,24.3,15.8,0000.0,0007.44,0004.48,0003.87
2023-04-22 09:28:00,,0834.0,5.00,0.00,22.8,21.1,00.0,31.3,24.2,15.7,0000.0,0007.47,0004.46,0003.85
2023-04-22 09:29:00,,0834.0,5.01,0.00,22.8,21.5,00.0,31.2,24.5,15.7,0000.0,0007.24,0004.40,0003.83
2023-04-22 09:30:00,,0834.1,5.01,0.00,22.9,22.5,00.0,31.2,24.8,15.6,0000.0,0007.03,0004.35,0003.82
2023-04-22 09:31:00,,0834.1,5.00,0.00,23.1,23.4,00.0,31.2,25.1,15.6,0000.0,0007.03,0004.33,0003.80
2023-04-22 09:32:00,,0834.0,5.00,0.00,23.1,23.3,00.0,31.3,25.0,15.5,0000.0,0006.89,0004.29,0003.79
2023-04-22 09:33:00,,0834.0,4.99,0.00,23.1,23.0,00.0,31.3,24.8,15.5,0000.0,0007.14,0004.32,0003.77
2023-04-22 09:34:00,,0834.0,5.00,0.00,23.1,22.6,00.0,31.4,24.8,15.5,0000.0,0007.29,0004.34,0003.76
2023-04-22 09:35:00,,0834.0,5.01,0.00,23.1,22.3,00.0,31.4,24.7,15.5,0000.0,0007.32,0004.35,0003.75
2023-04-22 09:36:00,,0834.0,5.00,0.00,23.1,22.1,00.0,31.4,24.6,15.6,0000.0,0007.38,0004.37,0003.75
2023-04-22 09:37:00,,0834.1,4.98,0.00,23.0,21.9,00.0,31.4,24.6,15.6,0000.0,0007.42,0004.39,0003.76
2023-04-22 09:38:00,,0834.0,4.99,0.00,23.0,21.7,00.0,31.4,24.6,15.6,0000.0,0007.40,0004.39,0003.77
2023-04-22 09:39:00,,0834.0,5.00,0.00,23.0,21.6,00.0,31.4,24.5,15.6,0000.0,0007.39,0004.41,0003.78
2023-04-22 09:40:00,,0834.0,5.00,0.00,23.0,21.4,00.0,31.4,24.4,15.7,0000.0,0007.38,0004.42,0003.80
2023-04-22 09:41:00,,0834.1,5.00,0.00,22.9,21.4,00.0,31.4,24.4,15.6,0000.0,0007.51,0004.42,0003.80
2023-04-22 09:42:00,,0834.1,5.00,0.00,22.9,21.3,00.0,31.4,24.3,15.6,0000.0,0007.59,0004.42,0003.80
2023-04-22 09:43:00,,0834.1,5.00,0.00,22.9,21.2,00.0,31.4,24.3,15.6,0000.0,0007.75,0004.46,0003.79
2023-04-22 09:44:00,,0834.1,5.00,0.00,22.8,21.2,00.0,31.3,24.3,15.6,0000.0,0007.61,0004.41,0003.79
2023-04-22 09:45:00,,0834.1,5.01,0.00,22.8,21.1,00.0,31.3,24.2,15.6,0000.0,0007.51,0004.38,0003.79
2023-04-22 09:46:00,,0834.1,5.01,0.00,22.8,21.1,00.0,31.3,24.2,15.6,0000.0,0007.60,0004.38,0003.78
2023-04-22 09:47:00,,0834.1,5.00,0.00,22.8,21.2,00.0,31.3,24.2,15.6,0000.0,0007.56,0004.36,0003.77
2023-04-22 09:48:00,,0834.1,5.00,0.00,22.8,21.8,00.0,31.2,24.6,15.5,0000.0,0007.56,0004.36,0003.76
2023-04-22 09:49:00,,0834.2,5.00,0.00,23.0,22.8,00.0,31.2,24.9,15.3,0000.0,0007.64,0004.39,0003.76
2023-04-22 09:50:00,,0834.2,5.00,0.00,23.1,23.3,00.0,31.2,25.0,15.2,0000.0,0007.63,0004.37,0003.75
2023-04-22 09:51:00,,0834.2,4.99,0.00,23.1,23.1,00.0,31.3,24.9,15.2,0000.0,0007.71,0004.37,0003.75
2023-04-22 09:52:00,,0834.1,5.00,0.00,23.1,22.7,00.0,31.3,24.8,15.1,0000.0,0007.69,0004.39,0003.75
2023-04-22 09:53:00,,0834.1,5.00,0.00,23.1,22.4,00.0,31.4,24.6,15.1,0000.0,0007.70,0004.43,0003.76
2023-04-22 09:54:00,,0834.1,5.00,0.00,23.0,22.1,00.0,31.4,24.6,15.1,0000.0,0007.62,0004.39,0003.76
2023-04-22 09:55:00,,0834.1,4.99,0.00,23.0,21.9,00.0,31.4,24.5,15.1,0000.0,0007.56,0004.38,0003.76
2023-04-22 09:56:00,,0834.1,5.01,0.00,23.0,21.7,00.0,31.4,24.4,15.1,0000.0,0007.64,0004.40,0003.77
2023-04-22 09:57:00,,0834.1,5.00,0.00,22.9,21.6,00.0,31.4,24.4,15.2,0000.0,0007.60,0004.41,0003.79
2023-04-22 09:58:00,,0834.1,5.00,0.00,22.9,21.4,00.0,31.4,24.3,15.2,0000.0,0007.62,0004.45,0003.81
2023-04-22 09:59:00,,0834.1,5.00,0.00,22.9,21.4,00.0,31.4,24.3,15.2,0000.0,0007.59,0004.46,0003.84
